User: anonymous   Login
Location: Aula-Vintri
(58.3875°N, 22.4322°E)
Time: 02:26:25
(UTC+00:00)
Language:

Meteor 2-3 Rocket - Orbit

View from above orbital plane
View from above orbital plane
View from above satellite
View from above satellite

Ground track
Ground track

The orbit data is extracted from the following two-line orbital elements,

1 10515U 77117B   19340.66750163 -.00000011  00000-0 -13826-4 0  9994
2 10515  81.2410 121.5593 0028031 212.5604 147.3838 14.08692419156864
Epoch (UTC): 06 December 2019 16:01:12
Eccentricity: 0.0028031
inclination: 81.2410°
perigee height: 843 km
apogee height: 884 km
right ascension of ascending node: 121.5593°
argument of perigee: 212.5604°
revolutions per day: 14.08692419
mean anomaly at epoch: 147.3838°
orbit number at epoch: 15686

The dashed part of the orbit path shows where the satellite is in the earth's shadow,  

DLR